Wind_Speed
20 21 21 22 23 23 24 25 26 26 27 27 27 27 26 25 25 24 23 23 22 21 21 21 20 20 19 19 18 18 19 20 21 22 24 24 23 21 20 20 18 16 14 14 16 17 17 16 15 16 16 15 15 15 14 14 12 10 8 8 8 6 3 2 1 2 3 3 1 1 0 3 6 11 13 12 10 10 9 9 7 6 5 5 5 3 5 9
21 22 23 23 24 24 25 25 26 27 27 28 28 28 28 27 27 26 26 25 25 23 23 22 22 21 21 20 19 19 19 20 20 21 22 23 24 23 22 21 21 18 16 16 17 17 17 17 16 17 16 16 16 16 15 15 14 11 9 9 9 7 5 3 2 2 1 2 2 1 1 1 4 10 12 11 11 10 10 10 8 7 6 6 5 2 5 8
22 23 24 25 25 26 26 26 26 27 28 28 29 29 29 28 28 28 28 27 27 26 25 24 24 23 22 21 20 20 20 19 20 20 20 21 24 24 23 23 22 21 19 17 16 15 15 15 16 16 15 16 16 16 16 16 14 12 10 10 10 8 6 3 2 3 2 1 2 2 2 3 5 11 12 11 11 10 10 10 9 8 7 6 5 2 5 8
24 24 25 26 27 27 28 28 28 28 28 29 29 30 30 30 29 29 29 29 28 28 27 26 26 26 25 23 22 22 21 20 20 19 19 21 22 23 24 24 24 22 20 18 16 13 11 11 13 13 14 14 16 16 16 16 15 13 12 12 12 10 9 5 3 3 2 2 4 4 3 2 3 11 13 11 11 10 10 9 8 8 8 8 6 4 6 7
26 26 27 27 28 29 29 30 30 30 30 29 30 30 30 30 30 29 29 29 29 29 29 28 28 28 27 26 25 24 23 22 21 20 20 21 21 23 24 25 25 24 22 20 18 15 12 12 12 11 11 13 15 17 17 17 15 13 13 14 14 12 11 8 5 3 2 2 5 5 3 2 2 11 14 12 11 10 10 10 8 7 7 8 7 5 7 6
28 28 28 29 29 30 30 31 32 32 32 31 30 30 31 30 30 30 29 30 30 30 30 29 29 30 29 28 27 27 25 25 23 21 21 21 21 22 23 24 25 25 24 22 21 19 17 16 14 12 12 13 16 18 17 16 15 15 15 16 15 14 14 11 8 5 3 3 5 4 2 2 3 8 10 11 12 10 9 9 8 7 6 6 7 6 8 7
30 29 29 30 30 31 31 32 33 33 34 33 32 31 31 31 31 30 30 29 29 29 29 29 30 31 31 30 29 29 28 27 25 24 23 22 22 21 22 22 23 25 26 24 23 22 20 18 17 16 14 15 18 18 18 18 17 18 18 17 15 15 15 13 11 8 5 5 5 5 4 5 7 9 9 9 12 9 7 7 8 7 6 6 6 6 8 7
31 30 29 30 31 32 33 33 34 34 35 35 34 33 31 30 31 31 30 29 29 29 29 29 30 31 31 31 30 31 30 29 27 27 26 25 24 22 21 21 23 25 25 25 25 23 22 21 21 19 18 19 20 19 19 19 19 19 19 18 16 15 14 14 14 12 9 7 6 5 5 7 9 9 8 7 9 8 7 7 7 6 7 6 6 6 7 7
30 30 30 31 32 33 34 35 35 35 36 35 35 35 34 32 30 31 31 30 29 28 28 28 29 30 31 31 31 32 32 30 30 29 28 27 25 24 22 21 23 24 24 25 25 24 23 23 23 23 24 23 20 18 17 17 17 16 15 15 15 15 14 14 15 15 13 10 8 6 5 6 7 8 7 6 6 7 8 8 6 6 7 7 5 5 6 7
30 30 31 32 33 34 35 36 36 36 36 36 36 36 35 34 32 31 31 30 30 28 28 27 28 29 29 30 31 31 32 32 31 31 30 28 27 26 24 22 23 22 22 23 24 26 27 26 26 26 26 24 20 17 17 16 15 12 11 11 12 14 14 15 15 15 14 12 9 7 7 7 7 7 7 7 6 6 7 7 6 6 7 6 5 5 5 6
29 29 30 31 33 34 35 36 36 37 37 36 36 37 36 35 34 32 31 31 30 29 28 27 27 27 28 29 30 30 32 32 32 32 30 29 28 27 26 24 23 22 21 22 25 28 29 28 27 26 26 24 21 18 18 17 13 10 9 9 9 9 10 13 14 13 14 14 12 10 8 7 6 6 7 7 6 6 6 6 6 6 6 6 5 5 4 4
29 29 29 30 31 33 34 35 35 36 37 37 36 37 37 36 35 34 33 32 31 30 29 28 27 27 27 28 28 28 30 31 32 32 30 30 30 29 28 26 24 22 22 23 26 27 28 27 26 26 26 24 22 19 19 18 14 12 12 11 9 6 6 9 12 13 14 15 14 12 10 7 5 6 7 6 5 5 5 6 7 6 5 6 5 5 4 3
29 28 28 29 30 31 32 32 33 35 36 36 36 36 36 36 36 35 34 33 33 32 31 30 29 28 28 27 27 27 28 29 31 32 30 29 30 30 29 28 26 24 24 25 25 25 27 27 26 27 26 23 22 21 20 19 17 15 14 13 10 8 9 9 9 12 15 15 14 12 10 8 6 6 7 6 5 5 5 6 7 6 4 5 5 5 5 3
28 28 28 28 29 29 30 31 31 33 34 35 35 35 35 35 36 36 35 34 33 33 33 32 31 30 29 28 27 27 27 28 29 31 29 29 30 30 29 29 28 27 27 26 25 24 24 25 26 26 24 23 23 22 21 20 19 17 16 14 11 10 11 9 7 10 14 15 13 12 10 9 8 8 7 7 7 6 5 5 6 6 4 5 6 5 5 4
28 28 29 29 29 29 29 30 30 31 32 33 33 33 34 34 35 35 35 35 34 34 34 34 33 32 31 29 28 28 28 27 28 30 28 28 29 29 29 30 29 29 29 28 26 24 23 23 24 24 23 24 23 22 21 21 20 19 18 16 12 12 12 10 9 11 13 12 12 11 11 11 11 10 9 9 8 7 6 5 4 5 5 5 6 5 5 5
28 29 29 30 30 30 30 30 30 30 31 31 32 32 33 33 33 33 34 35 34 34 35 35 34 34 33 32 30 30 29 29 28 29 27 27 28 28 28 29 29 29 30 29 28 26 24 23 23 23 24 23 22 21 22 22 22 20 19 18 15 14 13 13 13 12 11 11 10 10 10 12 13 13 12 11 8 7 7 7 4 4 4 4 4 5 5 5
28 29 30 31 31 31 31 31 30 30 31 31 31 31 31 32 32 31 32 33 34 34 35 35 35 35 34 34 33 32 31 30 30 29 28 27 27 27 27 28 29 29 30 30 30 28 25 24 23 23 24 23 22 22 22 22 21 20 20 21 19 18 16 17 17 15 13 13 12 11 10 12 13 13 13 12 10 7 7 7 5 4 3 3 4 4 6 6
26 27 29 31 33 33 32 32 31 31 31 31 31 30 30 31 31 31 31 31 32 33 34 35 35 35 35 35 34 33 32 31 31 31 30 28 27 27 27 27 28 29 30 30 30 28 26 25 25 24 23 22 22 22 20 19 20 21 22 24 24 23 22 21 21 18 17 16 15 14 12 11 12 13 12 12 11 8 6 5 5 4 3 2 3 5 6 7
25 25 27 30 32 33 32 32 32 32 31 31 32 31 29 29 31 31 31 30 30 32 33 34 34 35 35 35 35 34 33 33 32 32 31 30 28 28 27 27 27 28 29 29 29 28 27 26 26 24 21 20 21 20 19 19 21 23 25 26 26 25 25 24 23 21 19 18 16 17 16 14 12 11 11 12 11 8 5 5 6 6 4 2 3 5 6 6
24 24 26 28 30 32 32 32 32 32 31 30 31 31 30 30 30 31 31 30 29 30 32 33 34 35 36 36 36 35 35 34 34 33 32 32 31 30 30 29 28 28 27 26 27 27 28 28 26 22 21 21 22 22 22 24 25 25 25 25 24 22 24 25 24 24 21 18 18 20 20 17 14 11 11 12 12 9 5 4 7 8 7 5 4 6 6 6
23 24 25 26 28 29 30 30 30 30 30 29 30 31 32 31 30 30 30 30 30 29 30 31 33 34 35 36 36 36 36 35 35 34 34 33 32 31 31 31 29 29 27 26 26 27 28 26 23 23 24 25 25 24 25 27 27 27 25 23 21 19 22 25 25 25 23 20 21 22 21 19 17 14 12 11 12 10 6 2 5 8 9 8 6 6 6 5
23 23 24 25 26 26 27 27 27 27 28 27 28 31 32 32 30 30 29 30 30 29 30 30 31 33 34 35 36 36 36 36 36 35 35 34 34 33 33 32 31 30 29 29 28 27 26 23 22 25 27 27 26 26 26 27 28 28 26 23 19 17 21 24 24 25 23 22 23 23 21 21 21 19 16 14 12 10 7 3 4 8 10 9 8 6 6 4
23 22 23 24 25 24 24 24 23 23 23 24 27 30 31 31 30 29 29 29 29 29 30 30 31 32 33 35 35 36 36 36 36 36 36 35 35 34 33 33 33 32 31 30 29 27 22 20 22 25 27 27 28 27 26 27 27 26 24 21 18 19 22 23 24 25 24 23 24 24 24 25 24 23 21 18 15 12 8 4 4 7 9 10 9 7 5 4
24 23 23 24 25 23 22 23 21 19 18 21 24 27 29 30 30 29 29 29 29 29 29 30 30 30 32 33 34 35 35 36 36 37 36 36 36 35 34 34 33 33 32 31 30 28 24 23 25 26 26 27 29 29 29 29 27 25 22 18 19 20 21 23 25 26 25 24 24 26 28 28 24 22 21 19 17 13 9 6 4 5 8 9 9 8 7 6
24 23 22 23 24 23 21 21 20 17 16 18 21 24 26 28 29 29 29 28 28 28 28 29 29 29 30 31 32 34 34 35 36 37 36 37 36 36 36 35 34 34 33 32 32 30 28 29 28 27 26 27 28 29 30 29 28 26 21 19 20 22 23 25 27 27 26 25 26 27 27 26 24 23 23 21 18 14 10 7 6 7 8 9 9 9 9 8
25 24 23 22 24 23 21 20 19 17 16 17 18 19 21 23 26 28 28 28 27 28 27 28 28 28 29 30 31 32 32 33 35 35 36 37 37 37 37 37 36 36 35 34 34 32 31 31 30 28 27 26 26 27 28 29 30 26 22 21 24 27 29 29 30 29 27 26 27 28 26 25 24 23 22 21 20 17 14 11 9 8 8 9 9 9 9 8
26 25 23 22 23 23 22 20 18 16 16 16 15 16 17 19 23 25 27 26 26 27 27 26 27 27 28 29 29 30 29 30 33 34 35 36 37 38 38 38 39 39 37 36 35 33 32 32 31 31 30 29 27 26 27 29 29 26 23 25 28 32 33 33 32 31 29 28 27 27 27 25 25 23 21 21 21 19 16 13 12 10 9 9 9 9 9 9
26 25 24 22 22 23 22 20 17 15 15 14 13 15 16 17 19 22 24 24 24 25 26 26 25 25 27 28 28 29 28 28 31 33 35 36 37 38 38 39 39 39 39 37 36 34 34 34 32 32 32 31 29 28 27 28 27 26 27 28 30 34 37 36 35 34 33 31 28 27 27 25 24 24 24 24 22 20 16 12 11 10 9 9 9 9 9 9
26 25 24 22 21 22 21 19 16 14 14 13 12 13 15 16 17 19 21 22 22 24 25 25 25 25 26 27 28 29 28 28 30 32 33 34 36 37 38 38 39 39 39 38 37 36 36 35 33 32 32 31 31 30 30 28 27 28 31 32 32 36 40 39 37 36 36 33 30 28 27 25 23 24 26 23 18 16 14 10 10 11 10 10 9 8 8 9
26 24 23 22 21 21 20 18 16 13 13 13 12 13 14 15 16 18 20 20 21 24 25 25 26 26 26 26 27 28 28 27 28 30 32 34 35 37 37 38 39 39 39 38 38 38 37 36 35 33 33 32 32 33 32 29 28 29 32 34 35 37 41 42 40 39 38 35 32 30 28 26 24 23 23 18 12 11 11 9 9 10 10 10 9 8 8 9
25 23 22 21 20 19 18 16 14 13 12 12 12 13 14 15 17 19 19 20 23 25 25 26 27 27 26 26 26 27 27 27 28 30 32 33 33 35 36 37 38 39 39 38 39 39 39 37 36 35 36 35 34 34 33 32 31 31 32 34 36 37 40 44 43 41 39 36 33 31 30 28 25 23 20 17 14 13 11 10 10 10 11 13 12 11 10 10
23 22 20 19 18 17 16 14 12 12 11 11 12 13 14 15 17 19 21 23 25 27 28 28 28 28 27 27 26 26 26 26 27 30 31 31 32 32 33 34 36 37 37 37 38 39 39 39 37 37 38 37 36 35 34 34 34 33 33 34 37 38 40 43 43 42 39 35 34 33 32 30 26 22 18 16 15 13 11 13 13 13 14 15 16 15 14 13
22 21 20 17 15 14 13 12 10 10 10 10 11 13 14 16 17 19 22 25 26 27 28 29 29 29 28 28 28 28 28 28 28 29 29 30 30 31 32 32 33 35 35 35 36 37 38 38 37 38 39 39 38 37 36 36 37 36 35 35 37 38 40 41 41 41 37 35 37 37 35 33 27 21 18 17 15 14 14 15 14 13 14 15 17 17 16 16
22 20 18 15 12 10 10 9 8 9 9 9 10 11 12 14 17 20 23 25 25 26 27 28 28 28 28 27 27 28 29 29 30 30 29 30 30 30 31 31 32 33 33 33 35 36 37 36 36 38 40 41 40 39 37 38 37 38 38 37 37 38 38 39 39 39 37 36 39 40 39 36 30 25 23 21 20 19 18 18 16 14 14 16 17 16 13 13
20 18 15 12 9 8 6 6 6 7 7 7 8 8 10 12 16 19 22 24 25 24 24 25 25 26 27 27 26 27 28 28 29 30 29 29 30 30 30 31 32 32 33 32 33 34 35 35 36 38 40 41 41 40 40 38 37 38 39 38 39 39 38 39 40 40 39 39 41 42 42 40 35 31 28 24 25 24 21 22 21 17 15 17 17 14 11 9
18 15 12 10 8 6 4 4 5 5 5 5 6 8 9 11 14 17 19 22 24 23 20 20 22 24 25 26 26 27 28 28 27 28 30 30 30 30 30 30 32 33 33 32 31 32 34 35 36 37 38 40 40 40 40 39 38 39 40 40 41 41 40 40 41 42 42 43 43 42 42 43 40 37 32 27 28 28 26 27 27 24 22 23 21 17 14 10
16 13 10 8 7 5 3 2 3 4 4 5 7 9 9 10 12 15 16 17 20 21 18 17 20 23 24 26 27 27 28 28 27 28 30 31 31 31 31 31 32 33 34 33 32 32 33 34 35 36 37 38 39 39 39 38 39 40 40 40 40 40 41 41 41 42 43 44 44 42 43 45 43 40 37 33 32 31 31 31 30 29 29 29 26 22 17 12
15 11 9 8 7 5 4 3 3 3 4 6 9 10 10 11 13 14 14 13 14 17 18 17 18 20 21 22 24 26 28 28 28 28 29 31 31 31 31 32 32 33 33 33 32 31 32 33 34 35 36 37 38 37 36 37 38 38 39 39 39 39 40 41 41 42 43 43 42 42 44 46 45 43 42 40 37 35 35 34 32 31 31 30 28 25 20 15
13 11 10 9 9 8 6 5 4 3 3 6 9 10 10 12 13 12 12 12 13 15 17 16 15 16 17 16 18 20 22 23 25 26 26 28 29 30 30 31 31 32 33 33 32 31 32 33 33 34 36 36 37 36 35 35 36 37 37 38 38 40 41 41 41 42 41 41 41 40 42 45 46 47 46 44 42 39 37 36 34 33 31 30 28 26 23 19
12 11 10 10 11 9 8 6 4 4 2 3 6 8 10 12 14 13 12 14 15 16 16 15 14 15 15 15 15 15 14 16 18 20 22 23 24 25 27 27 28 29 31 32 32 31 31 33 33 34 36 36 37 37 36 36 37 37 38 39 39 40 42 43 43 42 41 40 40 38 40 43 46 48 48 47 45 42 40 38 36 33 31 29 27 26 25 22
12 12 11 11 12 11 9 6 5 7 7 4 2 4 6 9 12 13 13 15 17 18 18 17 17 16 17 17 17 15 13 13 14 16 18 20 20 22 23 24 25 26 27 29 30 29 30 32 32 33 35 37 38 39 38 37 38 38 39 40 40 40 41 42 43 44 43 41 40 39 39 41 43 45 47 48 47 45 44 40 36 33 31 28 26 25 26 24
13 13 12 12 12 11 10 9 8 9 10 8 5 4 3 4 8 11 13 16 18 19 19 19 19 19 18 18 17 16 14 13 12 13 16 18 19 20 20 21 23 24 25 27 28 28 28 30 31 32 34 37 38 38 38 39 40 40 40 41 41 41 42 42 44 45 44 43 42 40 40 41 41 41 42 45 46 45 43 40 35 33 31 29 28 30 30 28
13 13 13 13 12 11 12 12 10 8 9 9 6 4 4 5 7 8 10 13 16 17 18 19 19 19 18 17 15 14 13 12 12 12 14 16 18 19 18 18 19 21 22 25 26 27 28 29 31 34 36 37 37 38 38 39 39 40 41 42 42 42 42 43 44 45 44 44 43 42 42 43 43 41 39 39 41 40 39 38 36 34 33 32 32 33 33 31
12 11 12 13 12 12 13 12 9 8 9 9 7 4 3 2 3 4 5 7 9 12 14 16 17 16 15 14 13 12 11 11 11 11 12 14 16 17 17 17 18 19 21 23 24 26 29 30 32 36 38 38 38 38 38 39 39 40 41 43 43 43 43 43 44 44 44 44 44 44 45 45 44 42 39 39 39 39 40 40 38 38 37 35 34 35 35 33
11 10 11 12 12 12 12 10 8 6 7 7 6 5 4 3 2 0 2 3 4 6 9 11 13 12 12 13 13 12 11 11 11 11 12 14 15 16 17 17 18 19 21 23 25 27 30 31 33 38 42 42 40 39 39 40 41 41 41 43 44 44 44 43 43 44 44 44 44 45 47 47 45 43 42 42 42 43 43 42 40 40 39 37 36 36 35 34
12 10 9 9 9 9 9 9 8 6 6 5 4 4 5 4 2 1 1 3 3 4 6 8 10 11 12 12 12 12 11 11 11 12 13 14 15 16 17 17 18 19 20 21 24 26 28 30 33 38 44 46 44 42 41 42 43 44 43 44 45 46 45 43 43 44 44 44 45 46 47 48 46 44 44 44 44 44 44 42 41 40 38 36 36 37 37 36
13 10 8 6 6 6 6 7 8 7 5 5 4 4 5 5 3 2 1 2 2 4 5 7 8 8 9 10 10 11 11 11 12 13 14 16 17 17 18 19 19 20 20 21 23 24 26 27 30 34 41 47 47 45 44 44 44 45 45 46 47 47 47 45 45 45 45 45 46 47 48 49 48 46 46 46 46 45 44 42 41 40 38 36 37 38 38 39
14 12 9 6 4 4 3 5 6 6 5 5 4 4 5 6 4 3 3 3 4 5 6 7 7 8 8 9 11 12 13 14 15 16 16 17 18 19 20 21 22 22 23 23 24 25 26 26 28 30 36 44 49 49 46 45 45 45 46 47 48 48 48 48 47 47 47 47 48 48 48 49 49 49 49 49 47 46 44 41 40 40 38 38 38 38 39 40
15 13 12 9 7 4 3 3 4 5 5 5 5 6 6 7 7 7 6 7 7 8 9 10 10 10 11 12 13 14 15 16 17 18 19 20 20 21 21 22 23 24 24 25 26 27 28 28 29 30 32 38 47 51 51 48 47 47 47 48 49 49 49 49 51 51 50 49 49 49 48 49 50 51 52 51 50 48 45 41 38 38 40 40 40 39 39 41
18 15 13 11 9 7 5 4 4 5 7 7 8 9 9 10 10 10 10 11 11 12 13 13 14 14 15 15 16 16 16 17 18 19 20 21 22 23 23 24 24 24 25 27 28 28 29 31 32 32 33 35 40 47 52 52 51 49 49 49 50 50 51 51 52 52 52 51 50 49 49 49 50 52 52 53 53 51 48 44 41 40 42 44 43 42 41 41
19 17 14 11 10 9 8 8 7 7 8 8 9 11 11 12 12 12 13 13 14 14 14 14 15 16 17 17 17 17 17 17 18 19 20 21 22 23 24 24 24 24 25 26 27 28 28 30 31 33 35 36 38 41 46 52 54 53 52 52 52 53 54 53 52 54 54 53 52 51 51 50 51 52 51 52 54 55 54 50 46 44 45 47 46 45 43 43
19 18 16 13 12 12 12 11 10 10 10 11 12 12 12 12 11 11 11 12 13 13 13 14 14 15 16 16 15 16 17 17 17 18 19 20 21 22 22 22 21 20 21 21 23 25 26 27 29 32 34 35 38 40 43 46 51 55 57 57 57 57 57 55 54 55 56 55 53 53 53 52 53 54 52 51 53 56 58 56 52 49 50 50 49 48 46 45
Wind_Direction
297 295 293 291 287 283 278 273 269 266 263 261 258 256 253 252 252 250 249 248 245 245 245 244 240 239 238 236 235 233 231 230 226 224 223 224 227 226 225 228 231 232 234 227 222 219 217 215 209 209 210 210 212 215 220 222 220 214 206 214 234 248 244 256 271 94 95 86 12 341 211 214 181 160 153 150 148 149 134 115 113 124 126 102 94 100 104 104
296 294 292 290 289 286 283 278 273 269 265 262 259 257 254 251 249 248 247 247 245 243 242 243 242 239 237 236 236 235 234 232 230 227 224 223 226 225 222 224 226 227 228 226 223 220 218 216 212 211 211 210 213 215 218 223 222 212 205 215 231 241 248 253 233 212 144 101 48 36 56 49 147 154 156 154 148 146 128 119 127 126 123 112 106 120 104 104
298 295 292 289 287 285 283 281 277 273 268 263 260 257 255 251 248 246 245 245 245 243 240 241 242 240 238 235 235 236 235 234 232 230 226 223 225 224 221 221 224 225 227 228 228 225 221 220 220 217 214 212 215 216 218 223 223 215 207 215 224 229 236 238 230 232 220 124 84 115 103 60 125 144 151 154 146 141 130 129 133 129 137 129 125 162 109 106
300 296 293 290 286 283 281 279 278 275 272 267 262 258 255 253 249 246 244 243 243 242 240 239 240 240 239 236 234 234 235 234 233 232 228 225 225 224 221 219 221 223 224 227 229 226 219 220 223 222 218 216 219 220 220 222 223 219 213 218 221 222 225 224 237 239 213 118 96 100 102 74 156 156 152 153 146 139 134 132 124 129 147 139 141 166 117 110
300 296 292 289 286 282 279 277 275 274 272 270 265 260 256 253 250 247 244 242 241 240 239 238 238 238 238 237 235 234 234 234 233 232 230 228 226 224 222 219 219 220 221 223 224 222 217 216 215 212 211 214 221 222 221 222 223 221 218 220 221 220 219 216 221 222 189 123 106 97 105 77 180 173 159 153 150 142 141 135 126 137 149 145 152 154 123 116
301 296 291 287 283 280 277 274 272 271 270 269 267 263 258 254 250 248 246 243 241 239 238 237 237 237 237 236 235 234 233 233 233 232 232 230 228 226 224 221 218 218 218 219 221 220 218 218 214 207 200 202 215 220 221 223 223 222 220 220 220 220 220 213 209 209 174 131 116 96 101 81 110 152 143 149 154 141 137 133 132 147 151 149 151 140 127 126
303 297 292 286 281 277 274 271 269 268 266 266 265 264 260 256 252 248 246 244 241 239 237 236 235 236 236 235 235 235 234 232 232 231 231 231 229 227 225 222 219 218 217 216 218 219 219 218 216 214 205 203 210 215 217 217 218 220 222 221 219 220 223 214 208 206 173 141 129 93 88 99 104 114 115 143 157 141 134 138 138 143 147 151 145 134 129 130
303 298 292 286 281 276 272 269 266 265 263 263 262 261 260 257 254 250 246 243 242 240 238 235 234 234 234 234 234 235 234 232 231 230 230 230 230 228 225 223 222 219 217 215 216 219 220 219 218 216 212 212 210 209 214 217 217 221 226 229 227 225 225 221 218 210 184 160 145 117 106 107 104 108 110 130 153 147 139 144 141 133 141 152 145 138 132 131
303 298 292 286 281 276 272 268 265 263 261 260 260 259 258 256 254 251 247 244 241 240 238 236 234 233 233 233 233 234 234 232 230 230 229 229 230 229 225 223 223 222 218 216 216 217 219 220 219 216 214 216 214 208 212 220 222 224 231 237 240 237 231 228 228 216 193 172 154 143 138 127 118 123 127 127 147 155 145 141 134 129 144 156 152 141 132 131
303 298 292 287 282 278 273 269 266 263 261 259 258 257 256 254 253 251 249 245 241 239 237 236 234 233 232 232 232 233 234 233 231 229 229 229 230 230 227 223 224 223 219 216 214 214 215 216 217 217 218 219 218 212 212 219 222 223 228 237 245 245 238 235 234 222 202 184 171 162 143 134 136 136 137 136 139 149 146 142 136 136 147 157 155 138 130 135
304 298 293 288 284 280 276 272 268 265 262 260 258 257 255 254 252 250 249 246 243 240 237 235 234 233 232 230 230 232 233 233 232 230 228 228 228 230 229 226 224 223 220 216 215 215 217 218 219 221 223 222 220 218 219 223 223 220 223 229 235 243 241 237 235 224 209 198 189 181 161 148 153 145 137 137 138 144 147 147 149 146 142 151 155 135 129 140
304 299 294 290 286 282 278 274 270 266 264 261 259 257 255 254 252 250 248 247 244 241 238 235 234 232 231 229 228 229 232 234 234 232 229 227 226 226 228 227 225 223 221 218 217 217 217 219 220 222 224 223 220 219 224 229 227 221 221 221 218 219 217 215 220 217 209 202 192 188 180 165 171 161 145 143 145 148 151 152 156 154 142 149 153 137 134 144
304 299 294 290 287 283 279 275 271 267 265 262 260 258 256 254 252 250 248 247 245 243 240 237 234 232 230 229 227 226 229 232 234 233 230 227 227 225 225 226 224 223 222 222 220 219 218 217 218 221 224 224 221 219 223 228 228 224 223 219 205 201 208 205 212 216 212 205 194 192 190 174 182 178 153 151 151 147 153 153 157 163 154 151 152 149 147 149
303 298 293 289 286 283 280 276 271 267 265 263 260 258 256 255 253 250 248 246 245 243 242 239 236 233 231 229 227 225 226 229 233 234 230 227 228 226 224 225 224 223 224 225 223 221 221 220 220 221 223 223 222 219 220 224 227 227 227 223 203 197 211 211 204 206 211 210 200 199 203 197 202 194 169 164 160 154 159 157 162 171 168 155 155 159 155 147
301 296 291 287 283 281 279 275 270 266 265 263 260 257 255 254 252 250 248 246 244 243 242 241 239 236 233 230 227 225 224 225 230 235 232 226 226 227 225 224 224 224 225 226 225 222 221 221 222 221 220 222 221 219 217 219 223 226 228 227 212 204 211 206 192 193 203 206 199 202 211 212 216 210 193 179 169 170 172 161 168 183 180 164 157 162 159 145
298 292 288 284 280 278 275 273 269 264 262 262 260 256 253 252 251 250 248 246 244 242 241 241 240 237 235 233 229 226 224 223 226 232 234 228 224 225 226 225 224 224 225 227 226 223 220 220 221 219 218 219 218 219 217 216 219 220 225 226 215 209 207 199 195 195 193 187 179 188 207 212 214 213 204 191 181 187 190 178 179 201 203 190 174 165 159 150
297 290 285 281 277 274 272 270 268 263 259 258 258 256 252 251 250 249 247 246 243 242 240 240 239 238 237 234 231 228 225 224 224 227 233 231 225 223 224 223 224 224 224 226 226 225 221 219 220 219 218 215 214 216 216 217 219 217 221 223 215 207 201 199 201 195 186 179 172 174 193 204 206 207 202 196 191 194 204 195 191 212 227 230 214 187 167 160
299 291 285 280 276 273 269 267 265 262 258 255 255 255 252 250 248 247 245 244 243 242 240 239 238 238 238 236 234 232 229 226 225 226 230 231 227 225 224 222 223 223 224 225 226 226 222 220 220 219 217 216 215 216 214 214 216 213 214 218 215 207 201 201 204 197 187 186 181 172 177 188 197 198 192 192 189 182 197 209 208 211 207 221 232 213 184 170
303 294 287 282 278 274 270 266 263 261 258 254 252 252 251 250 248 246 244 242 241 241 239 238 237 236 236 235 235 233 231 229 228 226 228 230 228 226 226 224 223 224 224 223 224 225 223 221 220 218 217 217 216 212 205 205 210 213 213 216 218 213 209 209 209 204 195 193 188 173 169 174 180 184 180 179 171 159 176 213 217 207 178 168 223 221 198 182
307 298 291 285 282 278 273 267 263 260 257 253 249 249 248 247 246 244 243 241 240 239 238 236 235 235 234 234 233 233 232 230 229 227 227 229 228 227 227 227 225 224 224 224 224 223 222 221 219 217 215 215 213 206 200 203 209 213 215 219 222 219 217 217 214 210 203 195 187 179 177 177 172 169 168 165 157 146 152 212 220 211 191 180 208 225 212 193
310 301 294 289 285 282 277 271 265 261 257 252 247 245 244 243 242 242 241 239 239 238 237 236 235 234 233 233 232 232 232 230 229 228 227 228 228 228 227 228 228 227 226 225 224 222 221 220 217 214 213 213 211 206 203 205 209 213 215 216 220 219 219 220 218 216 209 191 183 185 186 183 175 168 162 161 160 150 138 192 224 218 209 196 200 219 216 199
312 304 298 293 289 286 282 275 269 263 259 254 247 242 241 240 239 240 239 237 236 236 236 235 235 233 232 232 231 231 231 231 230 229 228 228 228 228 227 228 229 229 228 227 226 224 222 219 216 215 215 213 211 209 209 211 213 215 215 213 210 209 215 220 221 221 212 194 189 191 189 186 181 173 166 161 163 160 146 160 218 220 219 209 203 210 206 188
313 306 300 296 292 289 285 280 273 267 262 256 249 242 239 237 237 236 236 235 234 233 233 233 233 233 232 231 230 229 230 230 230 229 228 228 228 229 228 228 229 229 229 229 228 226 222 219 218 218 217 214 212 210 211 215 216 217 217 211 203 203 211 217 219 221 217 203 199 195 190 193 193 186 178 171 170 166 154 157 204 218 223 216 209 210 204 183
312 306 301 296 292 290 288 283 277 271 264 256 250 244 238 236 235 233 232 232 231 231 231 231 231 232 231 230 229 228 229 229 229 229 228 228 228 228 228 228 228 230 229 229 230 226 221 220 219 218 216 215 213 209 211 214 215 215 212 203 199 204 209 212 215 221 221 212 206 202 197 200 205 196 185 180 176 165 155 161 185 206 220 219 213 214 214 199
312 306 300 296 291 289 287 284 281 276 267 257 251 246 240 235 233 231 229 228 227 227 228 230 229 229 229 229 227 226 226 227 228 228 228 228 227 226 226 227 227 229 229 228 229 226 223 223 221 219 218 217 216 213 213 214 214 213 204 192 194 199 201 207 213 220 223 216 211 211 206 203 207 203 192 188 180 166 163 177 186 194 210 218 217 217 220 211
312 306 300 295 289 287 285 283 282 277 269 259 252 247 241 235 231 228 227 225 224 224 224 225 227 226 227 227 226 225 224 225 226 226 227 227 227 226 225 225 225 226 226 226 227 226 226 226 224 222 220 219 218 216 215 215 216 212 197 186 188 192 197 205 211 216 220 219 214 213 209 204 206 206 202 196 185 174 175 183 186 189 201 213 217 218 221 217
314 308 302 295 288 286 284 283 282 277 270 264 255 246 239 233 228 226 224 223 222 221 220 221 222 223 224 225 225 223 222 222 223 223 224 225 225 226 225 225 225 225 225 225 226 226 228 228 225 224 223 221 218 216 216 216 217 211 196 187 187 189 195 205 211 213 217 221 220 215 211 207 204 204 202 197 190 186 184 186 188 185 189 203 208 210 214 215
316 310 303 296 287 283 282 282 282 277 271 265 252 243 238 231 225 221 220 218 217 218 218 217 217 218 221 222 222 221 219 219 220 220 221 223 223 223 224 224 225 225 225 225 226 227 228 229 227 226 226 225 222 219 216 215 214 209 199 192 190 191 196 204 211 212 216 221 221 219 216 212 206 205 205 203 199 195 188 185 191 187 184 193 199 203 205 208
317 310 303 296 287 280 279 279 280 276 270 260 245 238 237 232 223 216 216 212 208 211 213 213 212 213 217 219 219 220 218 216 217 218 219 219 220 220 221 223 224 224 224 224 225 226 227 228 228 228 228 228 226 224 221 216 210 207 202 195 192 194 198 204 209 211 215 219 220 222 222 218 212 210 212 213 214 205 189 183 196 197 191 190 193 198 200 203
315 310 303 295 286 278 275 275 276 273 266 256 243 234 233 230 222 215 212 205 200 204 206 207 207 208 211 214 216 219 219 217 216 217 217 217 218 220 221 223 223 223 223 223 224 225 227 228 228 228 228 227 227 227 225 220 214 210 207 200 194 195 198 203 208 210 213 217 221 225 226 222 217 215 213 209 209 205 191 194 210 208 193 184 184 194 199 200
315 310 303 295 286 277 272 272 273 268 261 252 241 234 232 228 221 215 206 197 196 196 197 199 202 204 206 208 212 215 217 217 216 217 218 218 218 219 221 222 223 223 222 221 222 224 225 226 226 226 227 226 226 227 226 223 219 216 213 208 201 198 199 203 207 210 212 214 220 225 229 227 219 215 213 201 196 200 200 206 209 200 191 187 186 190 195 199
317 311 305 297 287 277 269 268 269 264 256 247 238 233 230 226 221 212 200 194 193 191 193 197 199 201 203 204 206 209 210 212 215 218 220 221 220 219 219 221 222 223 222 222 222 224 224 225 225 225 226 226 225 226 226 224 221 218 217 215 209 203 201 204 208 211 212 213 217 223 229 231 225 217 214 207 203 207 212 213 208 204 202 198 192 190 191 193
321 316 310 301 290 278 268 264 262 257 250 240 233 231 230 224 216 207 199 196 194 193 196 197 196 197 198 199 202 206 207 208 214 219 221 222 221 220 220 220 221 222 222 222 222 222 223 224 224 224 225 225 224 225 226 225 223 220 218 217 216 211 207 207 209 213 213 212 215 221 226 230 229 224 221 217 211 210 212 213 217 222 220 209 201 198 196 194
324 320 313 305 296 283 270 260 251 245 238 230 228 232 231 221 212 205 199 196 194 194 195 193 193 195 195 196 200 205 208 210 213 216 218 221 221 221 220 220 220 220 220 221 221 222 223 221 221 223 225 225 225 224 225 226 225 222 219 217 217 215 213 212 212 214 215 212 214 219 224 226 225 225 225 222 217 213 209 208 216 229 230 221 213 210 210 208
327 325 319 313 307 296 280 256 238 235 230 223 225 233 229 219 212 207 200 195 193 193 193 193 194 197 198 198 199 204 208 210 213 213 214 218 221 222 222 222 222 221 219 218 219 221 222 220 219 222 225 225 225 223 223 225 226 224 221 218 216 214 213 213 213 214 214 214 214 217 221 224 222 222 224 221 218 215 208 204 209 219 227 225 218 212 214 222
332 331 325 324 323 318 301 255 235 236 229 217 221 228 223 217 217 215 208 200 196 194 194 196 200 203 205 205 204 208 210 210 211 213 213 216 220 222 223 223 223 223 221 219 217 218 219 218 218 221 224 225 224 223 222 222 223 225 223 219 217 216 214 211 211 213 214 214 215 215 219 223 222 223 224 221 218 215 208 205 205 207 215 221 217 210 209 214
340 339 336 336 334 333 325 275 249 240 221 207 215 220 217 215 219 221 219 213 205 200 197 200 206 210 212 212 210 212 214 214 213 213 215 216 218 220 222 223 224 224 224 222 218 217 217 217 218 218 220 223 224 223 221 220 221 224 225 223 220 219 218 215 213 213 214 214 214 214 218 222 222 222 223 221 218 216 213 212 211 210 213 216 216 212 211 208
349 352 352 354 357 359 356 331 286 254 222 206 209 213 211 213 217 219 222 223 215 204 198 198 205 210 212 216 216 216 217 219 217 216 216 217 218 219 220 221 222 223 224 224 220 217 215 215 217 217 218 220 222 222 220 218 219 221 224 225 222 218 218 218 217 217 216 215 213 212 215 220 222 222 222 221 219 217 216 216 219 220 217 215 213 210 205 202
358 2 6 13 18 12 358 344 332 318 249 209 204 206 209 213 217 219 220 221 216 208 203 201 203 207 210 215 221 223 222 222 222 219 219 220 220 220 219 220 220 220 221 222 221 218 215 213 214 215 216 218 221 221 218 217 218 218 219 222 222 220 218 218 218 219 220 219 216 213 213 217 220 222 221 220 220 221 220 219 220 223 221 216 213 207 200 198
9 17 21 25 25 18 4 357 11 21 350 216 195 196 206 213 217 220 221 220 218 215 216 217 214 212 212 214 219 223 223 225 227 225 222 224 225 225 223 222 222 221 220 220 219 218 216 214 212 213 215 217 218 219 217 217 219 218 217 219 221 222 222 220 219 218 219 220 220 218 216 215 218 222 222 221 221 221 223 223 222 222 222 218 215 210 205 202
22 29 31 31 31 27 18 18 44 55 45 38 121 171 198 212 215 216 219 221 222 223 225 229 229 224 223 224 224 225 226 228 232 231 227 225 226 228 228 225 225 225 223 221 219 216 215 215 212 211 214 215 215 217 217 216 218 218 217 219 220 221 222 222 221 220 218 217 218 219 218 216 217 221 222 223 223 222 224 226 225 223 221 219 218 219 217 213
29 33 35 35 37 38 37 42 56 67 69 71 87 124 164 218 221 215 219 224 226 225 225 229 234 235 233 232 233 235 235 229 226 227 225 222 221 224 226 227 227 227 226 225 222 217 215 214 210 208 211 214 214 216 216 215 216 217 216 218 220 221 222 222 223 223 220 216 215 216 217 217 218 220 220 221 222 223 224 223 220 217 215 213 215 219 219 216
31 35 39 38 37 40 44 48 48 54 69 77 88 124 164 210 223 219 223 226 223 223 221 222 230 237 238 238 241 245 243 232 224 222 219 217 216 216 217 220 223 225 225 226 226 222 216 212 206 204 208 212 213 213 214 214 215 215 215 217 218 220 221 222 223 225 223 219 215 214 216 217 216 218 218 217 218 217 214 212 210 207 205 204 206 211 214 212
28 32 38 38 35 37 41 44 44 45 53 61 69 88 128 187 221 226 225 219 217 220 219 216 221 231 237 240 242 241 235 228 224 221 218 218 217 214 213 213 216 220 220 220 222 221 218 214 207 202 204 209 211 211 212 212 213 213 213 215 217 218 219 220 222 223 223 221 218 215 216 217 215 215 214 211 211 208 204 205 207 204 202 202 203 208 213 214
28 28 31 31 30 33 39 45 51 53 52 57 70 72 66 70 68 105 199 195 202 211 210 206 209 217 226 231 233 231 224 221 222 219 217 220 222 220 219 217 216 218 219 218 217 216 215 214 208 203 203 206 209 211 211 211 212 212 212 214 216 217 218 219 220 221 221 221 219 216 216 217 215 213 211 208 207 205 203 206 209 208 208 207 207 210 213 214
30 30 29 25 19 21 31 40 48 59 63 57 55 50 40 42 49 54 185 191 192 195 198 201 204 207 215 225 233 236 233 229 229 228 225 226 229 230 230 228 223 220 221 222 222 220 218 215 211 207 205 206 209 212 213 212 212 213 212 213 215 217 219 220 220 220 221 221 219 216 216 216 213 210 208 207 206 206 206 208 209 210 212 211 208 211 213 211
25 26 26 18 8 9 14 24 31 39 49 46 37 28 18 11 6 356 307 222 214 214 215 218 219 218 222 231 241 248 250 247 244 242 239 236 235 235 236 238 235 231 228 227 227 226 225 220 216 213 209 208 209 212 213 213 213 213 213 212 214 216 218 220 221 221 222 221 219 219 218 216 213 210 207 206 206 206 208 209 209 209 211 211 209 211 212 210
20 23 26 15 359 356 0 16 23 20 19 20 14 6 359 349 335 325 319 297 271 258 249 245 244 243 244 246 249 253 257 259 258 257 255 251 247 243 241 242 242 241 237 235 233 232 231 228 224 220 215 211 210 212 214 215 215 215 215 214 214 216 217 218 219 220 220 219 220 222 221 218 216 213 209 207 206 206 208 209 209 210 209 209 209 212 212 209
20 26 32 29 20 13 1 2 8 359 351 351 346 337 333 327 315 304 302 300 291 281 273 268 264 262 262 261 260 261 264 266 266 266 264 261 258 254 252 250 249 248 246 244 241 239 236 234 230 227 223 218 214 214 215 216 217 216 217 216 216 217 218 218 219 219 219 219 220 223 224 223 221 217 213 210 208 207 207 205 205 207 205 204 207 210 210 208
23 26 29 29 30 34 30 17 2 344 334 330 330 329 324 319 312 302 296 292 287 281 277 276 276 273 272 272 272 271 270 269 266 265 264 262 260 258 257 257 256 254 252 250 248 245 243 242 238 233 230 226 221 218 217 218 219 219 219 218 218 219 220 220 221 222 221 220 220 222 224 225 224 221 217 214 212 210 209 204 201 204 204 204 207 210 211 212
28 29 27 23 23 28 27 21 10 354 341 333 332 332 326 320 314 306 297 290 285 284 283 282 281 280 279 280 279 277 273 271 267 264 263 260 258 258 258 258 258 258 257 255 253 252 250 249 246 242 238 235 229 224 222 221 222 222 221 220 220 221 222 222 223 224 223 221 220 221 222 223 225 224 220 217 215 214 214 210 206 205 205 205 207 209 211 216
26 32 33 30 32 33 30 24 16 9 3 355 349 344 336 329 321 310 301 293 287 283 281 279 278 278 277 276 273 271 269 267 262 256 255 255 255 256 257 258 258 258 258 259 258 256 254 254 252 249 246 244 238 232 227 224 223 224 224 223 223 224 225 224 224 225 225 223 221 220 221 222 225 226 221 217 216 215 216 216 212 209 207 207 208 208 209 215
Height
5862 5861 5860 5860 5859 5859 5858 5858 5857 5857 5856 5856 5856 5856 5857 5858 5858 5858 5859 5859 5860 5861 5861 5861 5862 5862 5863 5863 5864 5864 5864 5865 5866 5867 5868 5869 5870 5871 5873 5873 5874 5875 5876 5877 5878 5879 5880 5882 5884 5885 5886 5887 5887 5888 5888 5889 5890 5891 5891 5891 5892 5893 5894 5894 5894 5895 5896 5896 5895 5895 5896 5896 5897 5898 5898 5899 5900 5901 5901 5901 5902 5903 5905 5904 5903 5904 5905 5905
5860 5859 5858 5857 5857 5856 5856 5855 5855 5854 5854 5854 5853 5853 5854 5855 5855 5856 5856 5857 5857 5858 5859 5859 5859 5860 5861 5861 5862 5862 5862 5863 5864 5865 5866 5867 5868 5869 5871 5872 5873 5874 5875 5876 5876 5878 5879 5881 5882 5884 5885 5886 5886 5887 5888 5888 5889 5891 5891 5891 5892 5893 5895 5894 5894 5895 5895 5896 5896 5896 5896 5896 5896 5897 5898 5899 5900 5901 5901 5902 5903 5904 5904 5904 5904 5905 5905 5905
5857 5856 5855 5855 5854 5854 5853 5852 5852 5852 5851 5851 5851 5851 5851 5852 5852 5853 5853 5854 5854 5855 5856 5857 5857 5857 5858 5859 5860 5860 5861 5861 5862 5863 5865 5865 5866 5867 5869 5870 5871 5872 5874 5874 5875 5877 5879 5880 5881 5883 5884 5885 5886 5886 5887 5887 5889 5890 5891 5891 5891 5893 5894 5894 5894 5894 5895 5895 5895 5896 5896 5896 5896 5897 5898 5900 5900 5901 5902 5902 5903 5903 5904 5904 5904 5905 5906 5906
5854 5853 5853 5852 5851 5851 5850 5849 5849 5849 5848 5848 5848 5848 5848 5848 5849 5850 5850 5851 5852 5852 5853 5854 5854 5855 5855 5857 5858 5858 5859 5860 5860 5861 5862 5863 5864 5865 5867 5868 5869 5871 5872 5874 5875 5876 5878 5880 5881 5882 5883 5884 5885 5885 5886 5886 5888 5890 5891 5891 5891 5892 5894 5894 5894 5894 5895 5895 5895 5896 5896 5897 5897 5897 5898 5899 5900 5901 5902 5903 5903 5903 5904 5904 5905 5906 5907 5907
5851 5850 5849 5848 5848 5847 5847 5846 5846 5845 5845 5845 5845 5845 5845 5845 5846 5846 5847 5848 5848 5849 5850 5851 5852 5852 5853 5854 5855 5856 5857 5858 5858 5860 5860 5861 5862 5863 5865 5866 5868 5869 5871 5872 5874 5876 5877 5878 5879 5881 5882 5884 5884 5883 5884 5885 5887 5889 5889 5889 5890 5892 5893 5894 5894 5894 5895 5895 5895 5895 5896 5897 5897 5897 5898 5899 5901 5902 5902 5902 5903 5903 5904 5904 5905 5906 5907 5907
5846 5845 5844 5844 5843 5843 5843 5842 5842 5842 5841 5841 5841 5842 5842 5842 5843 5843 5844 5844 5845 5846 5847 5848 5849 5849 5850 5851 5852 5853 5854 5855 5856 5857 5858 5859 5860 5861 5862 5864 5866 5868 5869 5871 5872 5874 5876 5877 5879 5880 5881 5882 5882 5882 5883 5885 5886 5887 5887 5888 5889 5891 5893 5894 5894 5894 5895 5895 5896 5896 5896 5897 5898 5899 5900 5900 5901 5902 5903 5903 5904 5904 5905 5905 5905 5906 5906 5907
5841 5840 5840 5839 5839 5838 5838 5838 5837 5837 5837 5837 5838 5838 5839 5839 5839 5840 5840 5841 5842 5843 5844 5845 5846 5846 5847 5848 5849 5850 5851 5853 5854 5855 5856 5857 5858 5859 5860 5862 5864 5865 5867 5869 5871 5872 5874 5876 5877 5878 5880 5880 5880 5881 5882 5883 5884 5885 5884 5886 5888 5890 5892 5894 5894 5894 5894 5895 5896 5896 5897 5897 5898 5900 5901 5901 5902 5903 5904 5904 5905 5905 5906 5906 5906 5906 5906 5907
5836 5835 5835 5834 5834 5833 5833 5833 5833 5833 5833 5833 5833 5834 5835 5836 5836 5837 5837 5838 5839 5840 5840 5841 5842 5843 5844 5845 5846 5847 5848 5850 5851 5852 5853 5854 5855 5857 5858 5860 5861 5863 5865 5867 5869 5871 5872 5874 5875 5877 5878 5878 5878 5880 5880 5881 5882 5883 5884 5886 5888 5889 5891 5893 5894 5894 5894 5894 5895 5896 5897 5898 5899 5900 5900 5902 5903 5904 5905 5905 5906 5905 5906 5907 5907 5906 5907 5907
5831 5830 5830 5829 5829 5829 5829 5829 5828 5828 5828 5828 5829 5829 5831 5832 5833 5833 5834 5834 5835 5836 5837 5838 5839 5840 5841 5842 5843 5843 5844 5846 5848 5849 5850 5851 5853 5854 5856 5858 5859 5860 5863 5865 5867 5869 5870 5871 5873 5874 5875 5875 5877 5879 5880 5880 5881 5882 5884 5886 5888 5889 5890 5892 5893 5894 5893 5893 5894 5895 5897 5898 5899 5900 5901 5902 5903 5904 5905 5905 5906 5906 5906 5907 5907 5907 5907 5907
5827 5826 5825 5824 5824 5824 5824 5824 5824 5823 5823 5824 5824 5825 5826 5827 5829 5830 5830 5831 5832 5833 5834 5835 5836 5837 5838 5839 5840 5841 5841 5843 5845 5846 5848 5849 5851 5852 5854 5855 5856 5858 5860 5863 5865 5865 5866 5867 5869 5870 5872 5874 5877 5878 5879 5879 5881 5883 5884 5886 5887 5888 5889 5891 5892 5893 5893 5894 5894 5895 5896 5898 5899 5900 5901 5902 5903 5904 5905 5905 5905 5906 5907 5908 5907 5906 5906 5907
5823 5822 5820 5819 5819 5819 5819 5819 5819 5819 5819 5819 5819 5820 5821 5823 5824 5826 5827 5828 5829 5830 5831 5832 5833 5834 5835 5836 5837 5838 5838 5839 5841 5843 5846 5847 5849 5849 5851 5853 5854 5856 5858 5860 5861 5861 5863 5865 5867 5869 5870 5873 5875 5877 5878 5878 5881 5883 5884 5885 5886 5887 5888 5889 5890 5891 5892 5893 5894 5895 5896 5898 5899 5900 5901 5902 5903 5904 5904 5905 5906 5906 5907 5908 5907 5906 5906 5906
5819 5817 5816 5815 5814 5814 5814 5813 5813 5814 5814 5815 5815 5816 5817 5818 5820 5821 5823 5824 5825 5826 5827 5828 5829 5830 5831 5833 5834 5836 5836 5836 5838 5840 5843 5845 5846 5847 5849 5850 5852 5854 5855 5856 5857 5859 5861 5863 5865 5867 5868 5871 5874 5876 5877 5878 5880 5882 5883 5884 5885 5886 5887 5888 5888 5889 5890 5891 5893 5894 5896 5897 5898 5900 5901 5901 5902 5903 5904 5905 5906 5907 5907 5907 5907 5906 5906 5906
5815 5813 5812 5811 5810 5809 5809 5809 5809 5809 5809 5810 5811 5811 5813 5814 5815 5816 5818 5820 5821 5823 5824 5825 5826 5827 5828 5830 5832 5833 5834 5834 5834 5836 5839 5842 5843 5845 5846 5848 5850 5851 5852 5853 5854 5857 5859 5861 5863 5864 5866 5869 5872 5874 5875 5877 5879 5880 5882 5883 5885 5886 5886 5887 5887 5887 5888 5889 5891 5893 5894 5896 5897 5899 5900 5901 5902 5903 5904 5905 5906 5907 5907 5907 5907 5906 5906 5906
5811 5809 5808 5807 5806 5805 5805 5804 5804 5804 5804 5805 5806 5807 5809 5809 5809 5811 5813 5815 5817 5819 5820 5821 5822 5824 5825 5827 5829 5830 5831 5832 5832 5832 5836 5839 5840 5842 5844 5845 5847 5849 5849 5850 5852 5855 5857 5859 5861 5862 5865 5868 5870 5872 5874 5875 5877 5879 5880 5882 5885 5886 5885 5886 5886 5886 5886 5887 5890 5892 5893 5895 5896 5897 5899 5899 5901 5902 5904 5905 5906 5906 5907 5907 5907 5907 5906 5906
5807 5805 5804 5803 5802 5801 5801 5800 5800 5800 5800 5800 5801 5803 5804 5804 5805 5807 5808 5810 5812 5814 5815 5817 5818 5820 5822 5824 5825 5827 5828 5830 5830 5830 5833 5836 5837 5838 5840 5842 5844 5845 5846 5848 5850 5853 5855 5857 5858 5861 5863 5865 5867 5870 5872 5873 5875 5877 5879 5881 5884 5884 5884 5885 5885 5885 5885 5886 5889 5890 5891 5893 5894 5895 5897 5898 5899 5901 5902 5903 5905 5906 5906 5906 5906 5907 5907 5906
5803 5801 5799 5798 5797 5797 5796 5796 5795 5795 5795 5795 5796 5797 5799 5800 5801 5802 5804 5806 5808 5809 5810 5812 5814 5816 5818 5820 5822 5823 5825 5827 5828 5828 5829 5832 5835 5836 5837 5839 5841 5842 5844 5845 5848 5850 5853 5855 5856 5859 5860 5862 5865 5867 5869 5871 5872 5875 5877 5878 5881 5882 5883 5884 5883 5884 5885 5885 5887 5888 5889 5891 5892 5894 5895 5896 5898 5899 5900 5902 5903 5905 5906 5906 5906 5907 5907 5907
5799 5797 5795 5793 5793 5792 5792 5791 5791 5791 5791 5791 5791 5792 5794 5795 5797 5798 5799 5801 5803 5804 5806 5807 5810 5812 5814 5816 5818 5820 5822 5824 5825 5826 5827 5829 5832 5833 5835 5837 5838 5840 5841 5843 5845 5848 5851 5853 5854 5856 5858 5860 5862 5864 5867 5869 5871 5873 5874 5876 5878 5880 5881 5881 5882 5883 5884 5884 5885 5887 5888 5889 5891 5892 5894 5895 5897 5898 5899 5900 5902 5903 5904 5905 5906 5907 5908 5908
5794 5792 5790 5789 5787 5787 5787 5786 5786 5786 5786 5786 5787 5788 5789 5791 5792 5793 5795 5796 5798 5800 5801 5803 5806 5808 5809 5812 5814 5816 5819 5820 5822 5824 5825 5827 5829 5831 5832 5834 5835 5837 5838 5840 5843 5845 5848 5851 5852 5854 5856 5859 5860 5862 5865 5868 5868 5869 5871 5872 5874 5876 5878 5878 5879 5881 5882 5883 5884 5885 5887 5889 5890 5891 5893 5895 5896 5897 5899 5900 5901 5901 5902 5904 5905 5907 5908 5908
5789 5788 5786 5784 5783 5782 5782 5781 5781 5781 5781 5782 5782 5783 5785 5786 5787 5789 5790 5792 5794 5795 5797 5799 5801 5803 5805 5808 5810 5812 5815 5817 5819 5821 5822 5824 5826 5828 5829 5831 5833 5834 5836 5838 5840 5843 5846 5848 5849 5852 5856 5858 5859 5861 5863 5864 5865 5866 5867 5869 5871 5874 5876 5877 5878 5879 5880 5881 5883 5885 5886 5887 5889 5890 5892 5893 5895 5897 5898 5899 5899 5900 5901 5903 5905 5907 5908 5908
5785 5783 5781 5779 5778 5777 5776 5776 5776 5776 5776 5777 5778 5779 5780 5781 5783 5784 5786 5788 5790 5791 5793 5795 5796 5798 5801 5803 5805 5808 5810 5813 5815 5817 5819 5821 5823 5825 5826 5828 5830 5832 5834 5836 5838 5840 5842 5845 5848 5852 5854 5855 5856 5858 5859 5860 5861 5863 5865 5867 5870 5873 5875 5876 5877 5878 5880 5881 5882 5884 5885 5886 5887 5888 5890 5891 5893 5895 5897 5898 5899 5900 5901 5902 5904 5906 5907 5908
5781 5779 5777 5775 5774 5772 5771 5771 5771 5771 5772 5772 5773 5774 5774 5776 5778 5779 5782 5784 5786 5787 5789 5790 5792 5794 5796 5798 5801 5803 5806 5809 5811 5814 5816 5818 5820 5822 5824 5826 5828 5830 5832 5833 5835 5837 5840 5843 5847 5849 5850 5851 5853 5855 5856 5857 5859 5860 5863 5866 5869 5871 5872 5873 5875 5877 5879 5881 5881 5882 5883 5885 5886 5886 5888 5889 5891 5892 5895 5897 5899 5900 5901 5902 5904 5905 5906 5907
5777 5775 5773 5771 5770 5769 5767 5767 5767 5767 5767 5767 5768 5768 5769 5771 5773 5775 5777 5779 5781 5783 5785 5786 5788 5790 5792 5794 5796 5799 5802 5804 5807 5810 5812 5815 5817 5818 5821 5823 5825 5827 5829 5830 5833 5835 5839 5843 5845 5845 5846 5848 5851 5853 5854 5855 5857 5858 5861 5864 5867 5869 5869 5870 5872 5874 5877 5880 5880 5881 5882 5883 5883 5884 5885 5886 5888 5890 5893 5895 5897 5898 5900 5901 5902 5903 5905 5906
5774 5771 5769 5767 5766 5765 5764 5763 5762 5763 5763 5762 5762 5763 5765 5767 5769 5771 5773 5774 5777 5779 5780 5782 5784 5785 5788 5790 5792 5795 5797 5800 5803 5806 5809 5811 5813 5815 5818 5820 5822 5824 5826 5828 5831 5834 5838 5841 5841 5841 5843 5846 5848 5851 5852 5853 5855 5857 5860 5863 5865 5867 5867 5868 5870 5871 5874 5878 5879 5880 5880 5880 5880 5881 5882 5884 5886 5887 5890 5893 5895 5896 5898 5899 5901 5902 5903 5905
5770 5768 5766 5763 5762 5762 5760 5759 5759 5759 5759 5758 5757 5758 5761 5763 5765 5767 5768 5770 5772 5774 5776 5778 5780 5782 5784 5786 5789 5792 5793 5796 5798 5801 5804 5807 5810 5813 5815 5817 5819 5821 5823 5826 5828 5832 5836 5837 5836 5838 5841 5843 5845 5847 5849 5851 5853 5856 5860 5863 5864 5865 5866 5867 5867 5868 5871 5876 5878 5878 5878 5878 5880 5881 5882 5883 5885 5886 5889 5891 5893 5895 5896 5898 5899 5901 5902 5904
5766 5764 5762 5760 5758 5758 5757 5756 5755 5755 5755 5754 5754 5755 5757 5759 5760 5762 5764 5766 5768 5770 5772 5774 5776 5778 5779 5782 5785 5788 5789 5791 5794 5797 5800 5803 5806 5808 5811 5813 5816 5818 5820 5823 5825 5829 5831 5832 5833 5836 5838 5840 5843 5845 5847 5849 5851 5855 5859 5862 5863 5864 5864 5865 5865 5866 5868 5872 5875 5876 5877 5879 5880 5881 5880 5881 5883 5885 5888 5890 5892 5894 5895 5897 5898 5900 5901 5902
5762 5760 5759 5757 5755 5754 5753 5752 5752 5752 5751 5751 5751 5752 5754 5754 5755 5758 5760 5762 5764 5766 5768 5770 5772 5774 5776 5779 5781 5784 5786 5787 5790 5794 5796 5798 5801 5804 5807 5809 5812 5814 5817 5819 5822 5825 5827 5828 5831 5834 5836 5838 5841 5843 5845 5847 5849 5853 5858 5860 5861 5862 5862 5863 5863 5864 5865 5867 5870 5873 5875 5878 5880 5880 5880 5881 5882 5884 5886 5889 5891 5893 5895 5896 5898 5899 5900 5901
5759 5756 5755 5754 5751 5750 5750 5749 5749 5749 5748 5748 5749 5750 5750 5750 5752 5754 5756 5758 5760 5762 5764 5766 5768 5770 5772 5775 5778 5781 5782 5783 5786 5789 5791 5793 5796 5799 5802 5805 5807 5810 5813 5816 5820 5822 5823 5825 5829 5831 5833 5835 5838 5840 5843 5845 5848 5852 5856 5858 5858 5859 5860 5861 5861 5862 5862 5863 5866 5870 5873 5875 5878 5880 5880 5880 5881 5882 5885 5888 5890 5892 5894 5895 5897 5898 5899 5900
5755 5753 5751 5750 5748 5747 5746 5746 5746 5746 5745 5746 5746 5746 5746 5747 5749 5750 5752 5755 5757 5758 5761 5763 5765 5767 5769 5772 5774 5777 5778 5780 5783 5784 5786 5789 5791 5794 5797 5800 5803 5807 5810 5814 5817 5819 5820 5822 5825 5828 5830 5833 5836 5838 5840 5843 5846 5850 5853 5854 5856 5857 5858 5858 5859 5860 5860 5860 5864 5867 5870 5873 5876 5878 5878 5878 5880 5881 5884 5887 5890 5891 5893 5894 5896 5897 5898 5899
5751 5749 5747 5746 5745 5743 5743 5743 5743 5743 5742 5743 5743 5743 5743 5744 5746 5747 5749 5751 5753 5755 5757 5759 5761 5764 5766 5768 5771 5773 5775 5777 5779 5780 5782 5784 5786 5790 5793 5796 5800 5803 5807 5811 5814 5815 5817 5819 5822 5826 5828 5831 5834 5835 5838 5841 5844 5846 5847 5850 5853 5854 5855 5855 5857 5858 5858 5858 5861 5865 5868 5871 5874 5876 5877 5879 5881 5883 5885 5887 5889 5890 5892 5893 5895 5896 5897 5898
5747 5745 5743 5742 5741 5740 5739 5740 5740 5740 5740 5740 5740 5741 5741 5742 5743 5744 5746 5748 5750 5752 5754 5756 5758 5760 5762 5765 5767 5769 5772 5774 5775 5777 5778 5779 5783 5787 5790 5793 5796 5800 5804 5807 5809 5811 5814 5816 5820 5822 5824 5827 5829 5832 5835 5839 5842 5843 5844 5846 5849 5850 5852 5853 5854 5855 5855 5857 5860 5862 5865 5869 5872 5874 5877 5881 5884 5885 5886 5887 5888 5890 5891 5892 5894 5895 5896 5897
5744 5741 5739 5738 5737 5736 5736 5737 5737 5737 5737 5737 5738 5738 5739 5740 5741 5742 5744 5746 5747 5749 5750 5752 5755 5758 5760 5762 5764 5767 5769 5771 5772 5773 5774 5777 5782 5786 5788 5790 5793 5796 5800 5803 5806 5808 5811 5813 5816 5817 5819 5823 5826 5828 5832 5835 5838 5840 5841 5844 5845 5847 5849 5850 5852 5853 5854 5856 5858 5860 5862 5865 5870 5873 5876 5880 5882 5884 5886 5887 5888 5889 5890 5891 5892 5893 5894 5896
5740 5738 5736 5735 5734 5733 5733 5734 5734 5734 5734 5734 5735 5736 5736 5737 5739 5740 5742 5743 5744 5745 5747 5749 5753 5755 5757 5759 5761 5764 5766 5766 5767 5770 5773 5778 5781 5783 5785 5788 5790 5794 5798 5800 5803 5805 5807 5809 5811 5813 5816 5819 5822 5825 5828 5831 5834 5836 5839 5841 5842 5844 5846 5848 5850 5851 5853 5856 5857 5858 5859 5861 5867 5872 5876 5879 5881 5883 5885 5886 5886 5887 5888 5889 5890 5891 5892 5894
5737 5735 5733 5732 5731 5730 5731 5731 5731 5731 5732 5732 5733 5733 5734 5735 5737 5738 5739 5740 5742 5744 5745 5748 5750 5752 5754 5756 5758 5760 5761 5762 5764 5769 5773 5776 5778 5780 5783 5785 5788 5792 5795 5797 5799 5801 5804 5806 5808 5809 5812 5815 5819 5822 5825 5826 5829 5832 5835 5837 5838 5841 5843 5845 5848 5850 5853 5856 5856 5856 5858 5859 5865 5871 5874 5876 5878 5880 5882 5884 5885 5885 5887 5888 5889 5890 5891 5892
5735 5733 5731 5729 5728 5728 5728 5729 5729 5729 5730 5730 5731 5732 5733 5734 5735 5737 5738 5740 5742 5744 5745 5747 5748 5750 5752 5754 5755 5757 5758 5759 5763 5767 5770 5772 5775 5777 5780 5783 5786 5789 5792 5794 5796 5798 5801 5803 5803 5805 5808 5812 5815 5818 5821 5823 5825 5828 5830 5833 5835 5838 5840 5843 5845 5848 5852 5855 5855 5855 5856 5858 5863 5867 5869 5871 5873 5876 5879 5882 5884 5884 5885 5886 5887 5888 5890 5891
5733 5731 5729 5728 5727 5727 5727 5727 5727 5728 5729 5730 5731 5732 5732 5733 5735 5736 5738 5740 5742 5744 5745 5746 5748 5749 5751 5752 5753 5754 5756 5758 5761 5765 5768 5770 5772 5775 5778 5781 5783 5786 5788 5791 5793 5795 5798 5799 5799 5801 5804 5808 5811 5814 5816 5819 5821 5824 5827 5829 5830 5833 5837 5840 5843 5845 5848 5851 5852 5854 5855 5857 5861 5863 5864 5867 5870 5872 5875 5877 5880 5882 5883 5884 5885 5887 5889 5891
5732 5730 5728 5727 5726 5726 5726 5726 5727 5728 5729 5730 5731 5731 5732 5733 5734 5736 5738 5740 5741 5743 5745 5746 5747 5748 5750 5751 5753 5752 5754 5757 5760 5763 5766 5768 5770 5773 5776 5778 5781 5783 5785 5788 5790 5792 5794 5795 5796 5799 5801 5804 5807 5809 5812 5815 5816 5818 5822 5825 5826 5829 5833 5836 5838 5841 5844 5846 5849 5852 5854 5855 5857 5859 5862 5865 5867 5868 5871 5872 5873 5876 5878 5880 5882 5885 5887 5889
5731 5729 5728 5727 5726 5726 5726 5726 5727 5728 5729 5730 5730 5731 5732 5733 5734 5736 5737 5739 5741 5743 5745 5745 5746 5747 5748 5750 5751 5751 5753 5756 5758 5761 5763 5766 5767 5770 5773 5776 5778 5780 5782 5785 5788 5789 5790 5792 5793 5796 5797 5799 5802 5805 5808 5810 5812 5814 5817 5821 5824 5827 5830 5832 5834 5837 5839 5842 5846 5850 5851 5851 5853 5856 5858 5860 5862 5865 5867 5868 5869 5871 5872 5875 5878 5882 5884 5887
5730 5729 5728 5727 5726 5726 5726 5726 5726 5727 5728 5729 5730 5731 5732 5733 5734 5735 5737 5739 5741 5742 5744 5744 5745 5746 5748 5749 5750 5751 5752 5755 5757 5759 5761 5763 5765 5767 5770 5772 5775 5777 5779 5782 5785 5787 5788 5789 5790 5793 5794 5795 5798 5801 5804 5807 5809 5811 5814 5817 5821 5824 5826 5829 5831 5833 5835 5838 5842 5846 5846 5847 5850 5853 5853 5855 5857 5860 5863 5865 5868 5869 5870 5872 5875 5877 5881 5883
5730 5729 5728 5727 5727 5726 5726 5726 5726 5727 5728 5729 5730 5731 5732 5733 5734 5735 5737 5739 5740 5741 5742 5743 5744 5746 5747 5749 5750 5751 5753 5755 5757 5758 5760 5761 5763 5765 5767 5769 5772 5774 5777 5779 5782 5784 5786 5787 5788 5789 5791 5792 5795 5797 5800 5803 5806 5808 5810 5813 5816 5819 5821 5824 5827 5830 5832 5835 5839 5841 5842 5844 5846 5847 5848 5850 5853 5856 5859 5862 5864 5866 5868 5871 5872 5874 5876 5879
5730 5729 5728 5728 5727 5727 5726 5726 5726 5727 5728 5729 5730 5731 5732 5733 5734 5736 5737 5738 5739 5740 5741 5742 5744 5745 5747 5748 5749 5750 5753 5754 5756 5757 5759 5760 5762 5764 5766 5768 5770 5772 5774 5776 5779 5781 5783 5784 5786 5786 5787 5789 5791 5793 5796 5799 5802 5804 5806 5809 5812 5814 5817 5820 5823 5826 5828 5831 5835 5837 5839 5840 5841 5842 5844 5847 5849 5852 5855 5858 5860 5863 5865 5868 5870 5872 5873 5875
5732 5730 5729 5729 5728 5728 5728 5727 5727 5727 5728 5729 5730 5731 5732 5734 5734 5736 5737 5737 5738 5739 5740 5742 5743 5744 5746 5747 5748 5750 5752 5753 5754 5756 5757 5759 5761 5762 5764 5766 5768 5770 5772 5774 5776 5778 5780 5782 5784 5784 5784 5785 5786 5788 5792 5795 5797 5800 5802 5805 5807 5810 5813 5816 5819 5821 5824 5827 5830 5832 5834 5837 5838 5839 5841 5843 5846 5849 5851 5854 5857 5860 5862 5865 5868 5870 5872 5873
5733 5732 5731 5730 5729 5729 5729 5729 5728 5728 5729 5730 5731 5731 5732 5733 5734 5735 5736 5737 5737 5738 5739 5741 5742 5743 5744 5746 5747 5749 5750 5752 5753 5754 5755 5756 5758 5759 5761 5763 5765 5767 5769 5771 5773 5775 5777 5779 5781 5781 5780 5781 5783 5786 5789 5791 5793 5795 5798 5800 5803 5805 5808 5812 5814 5816 5820 5823 5825 5827 5829 5832 5834 5836 5837 5840 5843 5846 5849 5852 5854 5857 5860 5862 5865 5867 5869 5871
5735 5734 5733 5732 5731 5731 5730 5730 5729 5729 5729 5730 5731 5731 5732 5733 5733 5734 5735 5735 5736 5737 5739 5740 5741 5742 5743 5745 5746 5747 5749 5750 5751 5751 5752 5753 5754 5756 5758 5760 5762 5763 5765 5767 5769 5772 5774 5776 5777 5777 5777 5778 5780 5783 5785 5787 5789 5792 5794 5796 5799 5801 5804 5807 5809 5812 5816 5818 5820 5823 5825 5826 5829 5833 5836 5838 5841 5844 5847 5849 5852 5854 5857 5859 5862 5864 5865 5867
5737 5736 5734 5733 5733 5732 5732 5731 5731 5731 5731 5731 5732 5732 5732 5733 5733 5734 5734 5735 5736 5737 5738 5739 5740 5741 5742 5743 5745 5746 5747 5748 5749 5749 5750 5751 5752 5753 5755 5757 5758 5759 5761 5762 5764 5766 5769 5771 5773 5774 5774 5775 5777 5779 5782 5784 5786 5788 5791 5793 5795 5798 5800 5803 5805 5808 5811 5814 5816 5819 5819 5820 5825 5830 5834 5836 5839 5842 5845 5847 5849 5852 5854 5857 5859 5860 5862 5864
5738 5737 5736 5735 5734 5734 5733 5734 5734 5733 5732 5733 5733 5733 5733 5734 5734 5735 5735 5735 5736 5737 5738 5738 5739 5740 5741 5741 5742 5743 5745 5746 5747 5747 5748 5749 5749 5750 5752 5754 5755 5756 5757 5758 5760 5761 5763 5765 5768 5770 5770 5771 5773 5775 5778 5780 5782 5785 5787 5790 5792 5794 5797 5799 5802 5804 5807 5810 5812 5814 5814 5816 5822 5828 5830 5832 5836 5839 5842 5845 5847 5849 5852 5854 5856 5857 5859 5862
5740 5739 5737 5736 5736 5735 5735 5735 5735 5735 5734 5734 5734 5734 5734 5734 5735 5735 5735 5736 5736 5737 5737 5738 5739 5739 5740 5740 5740 5741 5742 5743 5744 5745 5746 5747 5747 5748 5749 5751 5752 5754 5755 5756 5757 5758 5760 5762 5764 5765 5765 5768 5770 5772 5773 5776 5778 5781 5784 5787 5789 5791 5793 5796 5798 5800 5803 5806 5807 5809 5811 5813 5818 5824 5827 5829 5833 5837 5840 5842 5845 5847 5849 5851 5853 5854 5856 5859
5742 5740 5738 5737 5736 5736 5736 5735 5735 5735 5735 5735 5735 5735 5735 5735 5735 5735 5736 5736 5736 5736 5737 5737 5738 5739 5739 5740 5740 5740 5740 5741 5742 5743 5744 5745 5745 5746 5747 5748 5749 5751 5752 5753 5755 5756 5758 5760 5761 5762 5763 5765 5767 5768 5769 5771 5774 5777 5780 5783 5785 5787 5790 5792 5794 5796 5799 5801 5802 5805 5808 5809 5814 5820 5824 5826 5830 5834 5836 5839 5841 5844 5846 5848 5850 5851 5853 5855
5743 5741 5739 5738 5737 5737 5736 5736 5736 5735 5735 5735 5735 5735 5735 5735 5735 5735 5736 5736 5736 5736 5737 5737 5737 5738 5739 5739 5739 5739 5739 5739 5740 5740 5741 5742 5742 5743 5744 5745 5745 5747 5749 5750 5752 5753 5755 5757 5758 5759 5761 5763 5764 5765 5766 5768 5771 5774 5777 5779 5781 5783 5785 5788 5789 5790 5793 5795 5797 5801 5805 5807 5811 5816 5819 5822 5826 5829 5832 5834 5837 5840 5843 5845 5846 5848 5850 5851
5744 5742 5741 5739 5738 5737 5737 5737 5736 5736 5735 5735 5735 5735 5734 5734 5734 5734 5735 5735 5735 5735 5735 5736 5736 5736 5737 5737 5737 5737 5737 5737 5737 5738 5738 5739 5739 5740 5740 5741 5742 5744 5745 5747 5748 5750 5751 5753 5754 5756 5757 5758 5760 5761 5763 5765 5767 5770 5773 5776 5778 5780 5781 5782 5783 5784 5788 5791 5794 5798 5802 5805 5807 5810 5815 5818 5821 5824 5827 5830 5833 5836 5839 5841 5843 5845 5846 5848
5745 5743 5742 5741 5739 5738 5738 5737 5737 5736 5736 5735 5735 5735 5734 5734 5733 5733 5733 5733 5733 5733 5734 5734 5734 5734 5735 5735 5735 5735 5735 5735 5735 5735 5735 5735 5736 5736 5737 5737 5739 5740 5741 5743 5744 5746 5747 5748 5749 5752 5753 5754 5756 5758 5760 5762 5764 5767 5770 5772 5773 5775 5776 5777 5779 5781 5784 5787 5791 5795 5799 5800 5801 5804 5810 5814 5816 5819 5822 5825 5828 5831 5834 5836 5838 5840 5843 5845
5746 5745 5743 5742 5741 5739 5738 5738 5737 5737 5736 5736 5735 5734 5734 5733 5733 5732 5732 5732 5731 5732 5732 5732 5731 5732 5732 5732 5732 5732 5733 5732 5732 5732 5732 5732 5732 5733 5733 5734 5735 5736 5737 5738 5740 5741 5742 5743 5744 5746 5747 5748 5751 5754 5757 5758 5761 5764 5766 5767 5767 5768 5770 5773 5776 5777 5779 5782 5787 5791 5794 5795 5794 5796 5803 5808 5811 5814 5816 5819 5823 5826 5828 5831 5833 5835 5838 5841
5748 5746 5745 5743 5741 5740 5739 5738 5738 5737 5736 5735 5735 5734 5733 5732 5732 5731 5730 5730 5730 5730 5730 5729 5729 5729 5729 5730 5729 5729 5729 5729 5729 5729 5729 5729 5729 5730 5730 5731 5732 5733 5734 5735 5736 5736 5737 5738 5738 5739 5741 5742 5745 5749 5751 5754 5757 5759 5759 5761 5762 5763 5765 5769 5771 5772 5775 5778 5782 5786 5789 5790 5788 5789 5795 5800 5804 5808 5810 5813 5817 5820 5823 5826 5828 5830 5833 5835